Карточка аэропорта UWLL

Внимание!
Информация на этой странице в стадии наполнения.
Если вы не увидели какой-то информации, или заметили неточность - пожалуйста сообщите нам!
Спасибо!
Команда RU-STAFF
Название аэропортаБаратаевка
Название аэропорта (англ.)Barataevka
Превышение426 ft. (129.8 m.)
Координаты54°16.236', 48°13.416'
Высота перехода4000 ft
Эшелон переходаQNH>=1013hPa:FL50; QNH<1013hPa:FL60; QNH<977hPa:FL70
Коды ответчика1000
Зона ОрВДСамара РПИ (UWWW)
Данные METARUWLL 210730Z 06006MPS CAVOK 16/09 Q1024 R02/290150 NOSIG RMK QFE755/1007
Проноз погоды (TAF)UWLL 210455Z 2106/2206 05005MPS 9999 BKN025 TX22/2111Z TN12/2106Z TEMPO 2106/2115 08007G14MPS BKN016CB
NOTAMshow/hide NOTAM
AWOS   TABLE

Информация о ВПП

ВПП Длина ВПП (м.) Покрытие Курс ВПП Частота ILS
023100Бетон19110.3
203100Бетон199111.3

Диспетчерские позиции

Позывной Наименование органа УВД Частота
UWLL_APPУльяновск-Подход127.3
UWLL_GNDУльяновск-Руление121.8
UWLL_R_APPУльяновск-Круг120.8
UWLL_TWRУльяновск-Старт/Посадка120.4



Спутниковое изображение